Flag for Japan Weather past 2 weeks in Nagasaki, Japan

Now
39 °F

Chilly.


Feels Like: 39 °F
Forecast: 38 / 51 °F
Wind: 1 mph from East

Location: Nagasaki

Current Time: Mar 2, 2015 at 4:44:27 AM

Latest Report: Mar 2, 2015 at 4:00 AM


Visibility: N/A

Pressure: 30.10 "Hg

Humidity: 85%

Dew point: 35 °F

Location of NagasakiLocation

Historic Weather in Nagasaki — Graph

°F

Nagasaki temperature yesterday

Maximum temperature yesterday: 51 °F (at 1:00 PM)
Minimum temperature yesterday: 45 °F (at 1:00 AM)
Average temperature yesterday: 47 °F

Past Weeks' High & Low Weather Summary

 TemperatureHumidityPressure
High58 °F (Feb 16, 3:00 PM)98% (Feb 22, 9:00 AM)30.33 "Hg (Feb 22, 9:00 AM)
Low38 °F (Feb 15, 4:00 AM)35% (Feb 26, 11:00 PM)29.83 "Hg (Feb 16, 3:00 PM)
Average48 °F71%30.10 "Hg
* Reported Feb 15 3:00 AM — Mar 2 3:00 AM, Nagasaki, Weather by CustomWeather, © 2015

Note: Actual official high and low records may vary slightly from our data, if they occured in-between our weather recording intervals... More about our weather records

Advertising

Nagasaki weather history for previous 24 hours

 ConditionsComfort  
Time TempWeatherWind HumidityBarometerVisibility
3:00 AM
Mon, Mar 2
40 °FPassing clouds.1 mph83%30.10 "Hg9 mi
2:00 AM40 °FQuite cool.1 mph79%30.09 "HgN/A
1:00 AM42 °FQuite cool.2 mph71%30.10 "HgN/A
12:00 AM44 °FQuite cool.1 mph64%30.12 "HgN/A
11:00 PM
Sun, Mar 1
45 °FCool.5 mph59%30.13 "HgN/A
10:00 PM45 °FCool.2 mph61%30.12 "HgN/A
9:00 PM46 °FOvercast.7 mph57%30.09 "Hg9 mi
8:00 PM46 °FCool.7 mph57%30.08 "HgN/A
7:00 PM46 °FCool.8 mph59%30.07 "HgN/A
6:00 PM47 °FPartly sunny.12 mph57%30.05 "Hg9 mi
5:00 PM48 °FCool.10 mph65%30.01 "HgN/A
4:00 PM49 °FCool.12 mph64%30.00 "HgN/A
3:00 PM50 °FOvercast.10 mph64%29.98 "Hg12 mi
2:00 PM50 °FCool.10 mph61%29.97 "HgN/A
1:00 PM51 °FCool.12 mph68%30.00 "HgN/A
11:00 AM48 °FCool.8 mph80%30.00 "HgN/A
10:00 AM48 °FCool.9 mph87%29.97 "HgN/A
9:00 AM47 °FSprinkles. Low clouds.5 mph95%29.95 "Hg5 mi
8:00 AM47 °FCool.6 mph96%29.93 "HgN/A
7:00 AM47 °FCool.7 mph97%29.91 "HgN/A
6:00 AM46 °FRain. Overcast.9 mph96%29.91 "Hg3 mi
5:00 AM46 °FCool.8 mph96%29.89 "HgN/A
4:00 AM45 °FCool.9 mph96%29.90 "HgN/A
Weather by CustomWeather, © 2015

See weather overviewHow to use our weather pages